This is the latest recevied weather packets stored in our database for station/object HK6REC-22. If no packets are shown the sender has not sent any weather packets the latest 10 day(s).
| Time | Temp. | Humidity | Pressure | Rain* | Wind** | Luminosity | Snow |
|---|---|---|---|---|---|---|---|
| 1777732322 | 20.56° C | 85% | 1014 hPa | 0 mm | - | - | - |
| 1777730521 | 20.56° C | 88% | 1015 hPa | 0 mm | - | - | - |
| 1777728720 | 20.56° C | 88% | 1014 hPa | 0 mm | - | - | - |
| 1777726919 | 21.11° C | 89% | 1015 hPa | 0 mm | - | - | - |
| 1777725118 | 20.56° C | 90% | 1014 hPa | 0 mm | - | - | - |
| 1777723317 | 21.11° C | 92% | 1014 hPa | 0 mm | - | - | - |
| 1777721516 | 22.22° C | 92% | 1014 hPa | 0 mm | - | - | - |
| 1777719715 | 16.11° C | 89% | 1015 hPa | 0 mm | - | - | - |
| 1777717914 | 16.11° C | 92% | 1014 hPa | 0 mm | - | - | - |
| 1777716113 | 16.67° C | 88% | 1014 hPa | 0 mm | - | - | - |
| 1777714312 | 16.67° C | 92% | 1013 hPa | 0 mm | - | - | - |
| 1777712511 | 17.22° C | 88% | 1014 hPa | 0 mm | - | - | - |
| 1777710710 | 17.78° C | 92% | 1013 hPa | 0 mm | - | - | - |
| 1777708909 | 17.78° C | 88% | 1014 hPa | 0 mm | - | - | - |
| 1777707108 | 18.33° C | 91% | 1013 hPa | 0 mm | - | - | - |
| 1777705307 | 18.33° C | 87% | 1014 hPa | 0 mm | - | - | - |
| 1777703506 | 18.89° C | 91% | 1013 hPa | 0 mm | - | - | - |
| 1777701705 | 19.44° C | 91% | 1014 hPa | 0 mm | - | - | - |
| 1777699904 | 20° C | 91% | 1014 hPa | 0 mm | - | - | - |
| 1777698103 | 21.67° C | 86% | 1015 hPa | 0 mm | - | - | - |
| 1777696302 | 23.33° C | 90% | 1014 hPa | 0 mm | - | - | - |
| 1777694501 | 23.89° C | 84% | 1015 hPa | 0 mm | - | - | - |
| 1777692699 | 23.89° C | 88% | 1014 hPa | 0 mm | - | - | - |
| 1777690898 | 23.89° C | 82% | 1015 hPa | 0 mm | - | - | - |
| 1777689097 | 23.89° C | 87% | 1013 hPa | 0 mm | - | - | - |
* Rain latest hour (hover to see other rain measurements)
** Current wind speed in m/s (hover to see current wind gust speed)